Location: Unspecified
(0.0000°N, 0.0000°E)
Time: 21:55:07
(UTC+00:00)

ATLAS 2AS CENTAUR RB - Pass Details

Date: 27 January 2013
Orbit: 245 x 25982 km, 12.1° (Epoch: 24 August)

Event Time Altitude Azimuth Distance (km) Brightness Sun altitude
Rises 13:28:21 0° 281° (WNW) 9,550 7.8 63.9°
Reaches altitude 10° 13:32:58 10° 281° (W) 9,823 8.0 63.1°
Maximum altitude 15:24:31 64° 262° (W) 24,632 11.0 39.5°
Enters shadow 21:05:36 44° 117° (ESE) 4,488 5.5 -40.5°
